Погода в Овощах

Россия / Ставропольский край     45°22′04″N   43°19′40″E
темп.,
°C
ветер,
м/с
пор.,
м/с
влажн.,
%
обл.,
%
осадки,
мм/ч
давл.,
гПа
погр.,
м
18 мая, вт
вт1800:00+16зсз91692100 0.7 1007700
03:00+15з71494100 3.6 1009630
06:00+14зсз81396100 8.4 1010664
09:00+15зсз71187100 8.8 1011619
12:00+18сз6871100 0.9 1011829
15:00+20сз566095 0.9 10111149
18:00+20зсз34640 0.0 1012568
21:00+16ссв11750 0.0 101211
19 мая, ср
ср1900:00+15юв22790 0.0 101111
03:00+14юв338394 0.0 101029
06:00+15вюв3883100 0.0 1008247
09:00+19ююв4668100 0.0 1009578
12:00+16з5790100 3.2 1012466
15:00+17сз6106850 4.9 1014830
18:00+17сз48695 0.0 10151278
21:00+13з348363 0.0 101749
20 мая, чт
чт2000:00+11юз22820 0.0 101712
03:00+11юз118097 0.0 101710
06:00+12ююв237861 0.0 101888
09:00+18ююв576786 0.0 1017809
12:00+22ююв66532 0.0 10161240
15:00+23ююв555199 0.0 10151398
18:00+21юв476097 0.0 1015256
21:00+16юв486436 0.0 1015108
21 мая, пт
пт2100:00+15юв615675 0.0 1014294
03:00+13юв514655 0.0 1014260
06:00+14юв616645 0.0 1014391
09:00+20юв914502 0.0 1014617
12:00+24юв911450 0.0 1013872
15:00+27вюв811435 0.0 10121096
18:00+24вюв81452100 0.0 1012641
21:00+19вюв817575 0.0 1012534
22 мая, сб
сб2200:00+17вюв8186368 0.0 1012458
03:00+16юв92067100 0.0 1011478
06:00+16юв81969100 0.0 1011488
09:00+22юв10175617 0.0 1010658
12:00+28вюв1014415 0.0 10091068
15:00+31вюв91336100 0.0 10081404
18:00+26вюв613478 0.0 1008364
21:00+20в51347100 0.0 1010287